sat.trackr.live / text

‹ back to catalog

STARLINK-32306

NORAD 61520 · 2024-183M

PAYLOAD ACTIVE UNKNOWN

§ Identity

Operator
Country
US
Launch date
2024-10-15
Launch site
AFETR
Launch vehicle
Mass (kg)
RCS (m²)

Purposes: comms

External: N2YO · Heavens-Above · Gunter

§ Orbital elements

Epoch: 2026-09-21T10:37:42.842208Z

Period
94.01 min
Inclination
53.1615°
Eccentricity
0.0001209
Mean motion
15.31699325 rev/d
Perigee alt
469.9 km
Apogee alt
471.6 km
Semi-major
6,848.9 km
B*
8.5723e-6
RAAN
311.7348°
Arg perigee
71.5859°
Mean anomaly
288.5274°
Rev number
10,964

§ Raw data

STARLINK-323061 61520U 24183M   26264.44285697 -.00000099  00000+0  85723-5 0  99952 61520  53.1615 311.7348 0001209  71.5859 288.5274 15.31699325109641

JSON: /api/v1/satellites/61520 · /tle

For live sub-satellite position, see the globe view (requires WebGL).

§ Visibility from observer

Set your observer location to see the next 7 days of passes ≥ 10°. The values pass through the URL so the page stays shareable.

No JS? Fill the form by hand. The geolocation button needs JavaScript.